| time (UTC) | temp F | wind direction | speed MPH | gust MPH | rain 1hr in | rain 24hr in | rain mn in | humidity % | barometer mb |
| 20260901082844 | 60 | 244 | 0.0 | 11.0 | 0.00 | 0.00 | 0.33 | 98 | 1010.9 |
| 20260901082343 | 60 | 245 | 0.0 | 11.0 | 0.00 | 0.00 | 0.33 | 98 | 1011.2 |
| 20260901080812 | 60 | 257 | 0.0 | 11.0 | 0.00 | 0.00 | 0.33 | 98 | 1010.9 |
| 20260901080311 | 60 | 252 | 0.0 | 11.0 | 0.00 | 0.00 | 0.33 | 98 | 1010.9 |
| 20260901075254 | 60 | 332 | 0.0 | 11.0 | 0.00 | 0.00 | 0.33 | 98 | 1011.2 |
| 20260901074753 | 60 | 263 | 0.0 | 11.0 | 0.00 | 0.00 | 0.33 | 98 | 1010.8 |
| 20260901073738 | 59 | 287 | 0.0 | 11.0 | 0.00 | 0.00 | 0.33 | 98 | 1010.7 |
| 20260901073238 | 59 | 275 | 0.0 | 11.0 | 0.00 | 0.00 | 0.33 | 98 | 1010.8 |
| 20260901072738 | 59 | 279 | 0.0 | 11.0 | 0.00 | 0.00 | 0.33 | 98 | 1010.7 |
| 20260901071207 | 59 | 275 | 0.0 | 11.0 | 0.00 | 0.00 | 0.33 | 98 | 1010.3 |
| 20260901070152 | 59 | 241 | 0.0 | 11.0 | 0.00 | 0.00 | 0.33 | 99 | 1010.4 |
| 20260901065651 | 59 | 306 | 0.0 | 11.0 | 0.00 | 0.00 | 0.33 | 98 | 1010.5 |
| 20260901065151 | 59 | 296 | 0.0 | 11.0 | 0.00 | 0.00 | 0.33 | 99 | 1010.5 |
| 20260901064651 | 59 | 209 | 0.0 | 11.0 | 0.00 | 0.00 | 0.33 | 99 | 1010.3 |
| 20260901064151 | 59 | 259 | 0.0 | 11.0 | 0.00 | 0.00 | 0.33 | 99 | 1010.4 |
| 20260901063650 | 59 | 238 | 0.0 | 11.0 | 0.00 | 0.00 | 0.33 | 99 | 1010.2 |
| 20260901063150 | 59 | 251 | 0.0 | 11.0 | 0.00 | 0.00 | 0.33 | 99 | 1010.3 |
| 20260901062649 | 59 | 329 | 0.0 | 11.0 | 0.00 | 0.00 | 0.33 | 99 | 1010.3 |
| 20260901061632 | 59 | 278 | 0.0 | 11.0 | 0.00 | 0.00 | 0.33 | 99 | 1010.2 |
| 20260901061131 | 58 | 271 | 0.0 | 11.0 | 0.00 | 0.00 | 0.33 | 99 | 1010.3 |
| 20260901060631 | 58 | 312 | 0.0 | 11.0 | 0.00 | 0.00 | 0.33 | 99 | 1010.2 |
| 20260901060130 | 58 | 311 | 0.0 | 11.0 | 0.00 | 0.00 | 0.33 | 99 | 1010.1 |
| 20260901055629 | 58 | 313 | 0.0 | 11.0 | 0.00 | 0.00 | 0.33 | 99 | 1010.4 |
| 20260901055129 | 58 | 304 | 0.0 | 11.0 | 0.00 | 0.00 | 0.33 | 99 | 1010.2 |
| 20260901054628 | 58 | 212 | 0.0 | 11.0 | 0.00 | 0.00 | 0.33 | 99 | 1010.4 |
| 20260901054127 | 58 | 205 | 0.0 | 11.0 | 0.00 | 0.00 | 0.33 | 99 | 1010.5 |
| 20260901053626 | 58 | 205 | 0.0 | 11.0 | 0.00 | 0.00 | 0.33 | 99 | 1010.2 |
| 20260901053126 | 58 | 205 | 0.0 | 11.0 | 0.00 | 0.00 | 0.33 | 99 | 1010.7 |
| 20260901052626 | 58 | 205 | 0.0 | 11.0 | 0.00 | 0.00 | 0.33 | 99 | 1010.6 |
| 20260901051611 | 57 | 205 | 0.0 | 11.0 | 0.00 | 0.00 | 0.33 | 99 | 1010.3 |
| 20260901051110 | 57 | 205 | 0.0 | 11.0 | 0.00 | 0.00 | 0.33 | 99 | 1010.4 |
| 20260901050610 | 57 | 205 | 0.0 | 11.0 | 0.00 | 0.00 | 0.33 | 99 | 1010.3 |
| 20260901050109 | 57 | 205 | 0.0 | 11.0 | 0.00 | 0.00 | 0.33 | 99 | 1010.5 |
| 20260901045609 | 57 | 338 | 0.0 | 11.0 | 0.00 | 0.00 | 0.33 | 99 | 1010.3 |
| 20260901045109 | 57 | 332 | 0.0 | 11.0 | 0.00 | 0.00 | 0.33 | 99 | 1010.0 |
| 20260901044054 | 57 | 277 | 0.0 | 11.0 | 0.00 | 0.00 | 0.33 | 98 | 1010.2 |
| 20260901043554 | 57 | 281 | 0.0 | 11.0 | 0.00 | 0.00 | 0.33 | 98 | 1009.9 |
| 20260901042539 | 57 | 277 | 0.0 | 11.0 | 0.00 | 0.00 | 0.33 | 98 | 1009.8 |
| 20260901040452 | 57 | 338 | 0.0 | 11.0 | 0.03 | 0.00 | 0.32 | 98 | 1009.8 |
| 20260901035952 | 57 | 331 | 0.0 | 11.0 | 0.06 | 0.00 | 0.32 | 98 | 1010.1 |
| 20260901035451 | 57 | 170 | 0.0 | 11.0 | 0.06 | 0.00 | 0.32 | 98 | 1010.2 |
| 20260901034434 | 57 | 170 | 0.0 | 11.0 | 0.06 | 0.00 | 0.32 | 98 | 1010.0 |
| 20260901033934 | 57 | 170 | 0.0 | 11.0 | 0.06 | 0.00 | 0.32 | 98 | 1010.2 |
| 20260901033433 | 57 | 170 | 0.0 | 11.0 | 0.08 | 0.00 | 0.32 | 98 | 1009.8 |
| 20260901032933 | 57 | 170 | 0.0 | 11.0 | 0.08 | 0.00 | 0.32 | 98 | 1009.7 |
| 20260901032433 | 57 | 170 | 0.0 | 11.0 | 0.10 | 0.00 | 0.32 | 98 | 1009.8 |
| 20260901031932 | 57 | 170 | 0.0 | 11.0 | 0.11 | 0.00 | 0.32 | 98 | 1009.8 |
| 20260901030916 | 57 | 170 | 0.0 | 11.0 | 0.13 | 0.00 | 0.31 | 98 | 1009.8 |
| 20260901025344 | 57 | 171 | 0.0 | 11.0 | 0.19 | 0.00 | 0.26 | 98 | 1010.1 |
| 20260901024844 | 57 | 171 | 0.0 | 11.0 | 0.20 | 0.00 | 0.26 | 98 | 1009.7 |
| 20260901024343 | 57 | 170 | 0.0 | 11.0 | 0.21 | 0.00 | 0.25 | 98 | 1009.7 |
| 20260901023842 | 57 | 169 | 0.0 | 11.0 | 0.24 | 0.00 | 0.25 | 98 | 1009.8 |
| 20260901023342 | 57 | 170 | 0.0 | 11.0 | 0.22 | 0.00 | 0.24 | 98 | 1009.7 |
| 20260901022841 | 57 | 171 | 0.0 | 11.0 | 0.22 | 0.00 | 0.24 | 98 | 1009.7 |
| 20260901022341 | 57 | 170 | 0.0 | 11.0 | 0.20 | 0.00 | 0.22 | 98 | 1009.9 |
| 20260901021326 | 57 | 171 | 0.0 | 11.0 | 0.17 | 0.00 | 0.19 | 98 | 1009.9 |
| 20260901020310 | 57 | 171 | 0.0 | 11.0 | 0.13 | 0.00 | 0.14 | 98 | 1009.7 |
| 20260901015810 | 57 | 171 | 0.0 | 11.0 | 0.09 | 0.00 | 0.10 | 98 | 1009.8 |
| 20260901015309 | 57 | 172 | 0.0 | 11.0 | 0.05 | 0.00 | 0.06 | 98 | 1009.9 |
| 20260901014808 | 57 | 170 | 0.0 | 11.0 | 0.03 | 0.00 | 0.05 | 98 | 1009.7 |
| 20260901014308 | 57 | 171 | 0.0 | 11.0 | 0.03 | 0.00 | 0.04 | 98 | 1009.7 |
| 20260901013807 | 57 | 170 | 0.0 | 11.0 | 0.00 | 0.00 | 0.02 | 98 | 1009.7 |
| 20260901012236 | 57 | 171 | 0.0 | 11.0 | 0.00 | 0.00 | 0.01 | 98 | 1009.8 |
| 20260901011735 | 57 | 170 | 0.0 | 11.0 | 0.01 | 0.00 | 0.01 | 98 | 1009.5 |
| 20260901011235 | 57 | 170 | 0.0 | 11.0 | 0.01 | 0.00 | 0.01 | 98 | 1009.7 |
| 20260901010734 | 56 | 170 | 0.0 | 11.0 | 0.01 | 0.00 | 0.01 | 98 | 1009.8 |
| 20260901010233 | 56 | 169 | 0.0 | 11.0 | 0.01 | 0.00 | 0.01 | 98 | 1009.8 |
| 20260901005733 | 56 | 170 | 0.0 | 11.0 | 0.01 | 0.00 | 0.01 | 98 | 1010.0 |
| 20260901005232 | 56 | 170 | 0.0 | 11.0 | 0.01 | 0.00 | 0.01 | 98 | 1009.9 |
| 20260901004731 | 56 | 171 | 0.0 | 11.0 | 0.01 | 0.00 | 0.01 | 98 | 1009.8 |
| 20260901003715 | 56 | 171 | 0.0 | 11.0 | 0.01 | 0.00 | 0.01 | 98 | 1010.0 |
| 20260901002146 | 56 | 170 | 0.0 | 11.0 | 0.00 | 0.00 | 0.00 | 98 | 1009.8 |
| 20260901001644 | 56 | 170 | 0.0 | 11.0 | 0.00 | 0.00 | 0.00 | 98 | 1009.7 |
| 20260901001144 | 56 | 169 | 0.0 | 11.0 | 0.00 | 0.00 | 0.00 | 98 | 1009.7 |
| 20260901000644 | 56 | 170 | 0.0 | 11.0 | 0.00 | 0.00 | 0.00 | 99 | 1009.7 |
| 20260901000144 | 56 | 169 | 0.0 | 11.0 | 0.00 | 0.00 | 0.00 | 99 | 1009.7 |
| 20260831235643 | 55 | 170 | 0.0 | 11.0 | 0.00 | 0.00 | 0.00 | 99 | 1009.8 |
| 20260831235143 | 55 | 172 | 0.0 | 11.0 | 0.00 | 0.00 | 0.00 | 98 | 1009.5 |
| 20260831234127 | 54 | 182 | 0.0 | 11.0 | 0.00 | 0.00 | 0.00 | 97 | 1009.9 |
| 20260831233625 | 55 | 182 | 0.0 | 11.0 | 0.00 | 0.00 | 0.00 | 97 | 1009.7 |
| 20260831233125 | 55 | 183 | 0.0 | 11.0 | 0.00 | 0.00 | 0.00 | 97 | 1009.7 |
| 20260831232625 | 55 | 183 | 0.0 | 11.0 | 0.00 | 0.00 | 0.00 | 97 | 1009.9 |
| 20260831232126 | 55 | 184 | 0.0 | 11.0 | 0.00 | 0.00 | 0.00 | 97 | 1010.0 |
| 20260831231624 | 55 | 185 | 0.0 | 11.0 | 0.00 | 0.00 | 0.00 | 97 | 1009.7 |
| 20260831231124 | 55 | 185 | 0.0 | 11.0 | 0.00 | 0.00 | 0.00 | 97 | 1009.8 |
| 20260831230623 | 56 | 186 | 0.0 | 11.0 | 0.00 | 0.00 | 0.00 | 97 | 1010.0 |
| 20260831230122 | 56 | 186 | 0.0 | 11.0 | 0.00 | 0.00 | 0.00 | 97 | 1009.6 |
| 20260831225622 | 56 | 183 | 0.0 | 11.0 | 0.00 | 0.00 | 0.00 | 97 | 1010.0 |
| 20260831224606 | 56 | 180 | 0.0 | 11.0 | 0.00 | 0.00 | 0.00 | 98 | 1009.9 |
| 20260831224104 | 56 | 181 | 0.0 | 11.0 | 0.00 | 0.00 | 0.00 | 98 | 1010.1 |
| 20260831223604 | 56 | 181 | 0.0 | 11.0 | 0.00 | 0.00 | 0.00 | 98 | 1010.2 |
| 20260831223103 | 56 | 182 | 0.0 | 11.0 | 0.00 | 0.00 | 0.00 | 98 | 1009.9 |
| 20260831222047 | 56 | 183 | 0.0 | 11.0 | 0.00 | 0.00 | 0.00 | 97 | 1010.2 |
| 20260831221547 | 56 | 184 | 0.0 | 11.0 | 0.00 | 0.00 | 0.00 | 97 | 1010.0 |
| 20260831221048 | 56 | 185 | 0.0 | 11.0 | 0.00 | 0.00 | 0.00 | 97 | 1010.0 |
| 20260831220547 | 56 | 186 | 0.0 | 11.0 | 0.00 | 0.00 | 0.00 | 97 | 1010.0 |
| 20260831220046 | 56 | 186 | 0.0 | 11.0 | 0.00 | 0.00 | 0.00 | 97 | 1009.9 |
| 20260831215546 | 56 | 187 | 0.0 | 11.0 | 0.00 | 0.00 | 0.70 | 97 | 1009.9 |
| 20260831215047 | 56 | 185 | 0.0 | 11.0 | 0.00 | 0.00 | 0.70 | 97 | 1009.7 |
| 20260831214546 | 56 | 186 | 0.0 | 11.0 | 0.00 | 0.00 | 0.70 | 97 | 1009.9 |
| 20260831214046 | 57 | 186 | 0.0 | 11.0 | 0.00 | 0.00 | 0.70 | 97 | 1009.8 |
| 20260831213031 | 57 | 183 | 0.0 | 11.0 | 0.00 | 0.00 | 0.70 | 97 | 1009.8 |
| 20260831212529 | 57 | 181 | 0.0 | 11.0 | 0.00 | 0.00 | 0.70 | 97 | 1009.8 |
| 20260831211513 | 57 | 180 | 0.0 | 11.0 | 0.00 | 0.00 | 0.70 | 97 | 1009.8 |
| 20260831210458 | 57 | 178 | 0.0 | 11.0 | 0.01 | 0.00 | 0.70 | 97 | 1009.4 |
| 20260831205957 | 57 | 179 | 0.0 | 11.0 | 0.01 | 0.00 | 0.70 | 97 | 1009.6 |
| 20260831204943 | 58 | 174 | 0.0 | 11.0 | 0.01 | 0.00 | 0.70 | 97 | 1009.6 |
| 20260831204443 | 58 | 274 | 0.0 | 11.0 | 0.01 | 0.00 | 0.70 | 97 | 1009.4 |
| 20260831203942 | 58 | 279 | 0.0 | 11.0 | 0.01 | 0.00 | 0.70 | 97 | 1009.5 |
| 20260831202927 | 58 | 273 | 0.0 | 11.0 | 0.01 | 0.00 | 0.70 | 97 | 1009.5 |
| 20260831202426 | 58 | 274 | 0.0 | 11.0 | 0.01 | 0.00 | 0.70 | 97 | 1009.1 |
| 20260831201925 | 58 | 278 | 0.0 | 11.0 | 0.01 | 0.00 | 0.70 | 97 | 1009.5 |
| 20260831201424 | 58 | 284 | 0.0 | 11.0 | 0.01 | 0.00 | 0.70 | 97 | 1009.5 |
| 20260831200923 | 58 | 279 | 0.0 | 11.0 | 0.00 | 0.00 | 0.69 | 97 | 1009.4 |
| 20260831200422 | 58 | 280 | 0.0 | 11.0 | 0.00 | 0.00 | 0.69 | 97 | 1009.2 |
| 20260831195922 | 58 | 277 | 0.0 | 11.0 | 0.00 | 0.00 | 0.69 | 96 | 1009.4 |
| 20260831195421 | 58 | 276 | 0.0 | 11.0 | 0.00 | 0.00 | 0.69 | 96 | 1009.4 |
| 20260831194921 | 58 | 276 | 0.0 | 11.0 | 0.00 | 0.00 | 0.69 | 96 | 1009.2 |
| 20260831194419 | 58 | 281 | 0.0 | 11.0 | 0.00 | 0.00 | 0.69 | 96 | 1009.1 |
| 20260831193404 | 58 | 278 | 0.0 | 11.0 | 0.00 | 0.00 | 0.69 | 97 | 1009.5 |
| 20260831191832 | 58 | 258 | 0.0 | 11.0 | 0.00 | 0.00 | 0.69 | 96 | 1009.5 |
| 20260831191332 | 59 | 252 | 0.0 | 11.0 | 0.00 | 0.00 | 0.69 | 96 | 1009.4 |
| 20260831190832 | 59 | 252 | 0.0 | 11.0 | 0.00 | 0.00 | 0.69 | 96 | 1009.3 |
| 20260831190332 | 59 | 252 | 0.0 | 11.0 | 0.00 | 0.00 | 0.69 | 96 | 1009.4 |
| 20260831185832 | 59 | 252 | 0.0 | 11.0 | 0.00 | 0.00 | 0.69 | 96 | 1009.1 |
| 20260831185331 | 59 | 251 | 0.0 | 11.0 | 0.00 | 0.00 | 0.69 | 96 | 1009.2 |
| 20260831184831 | 59 | 252 | 0.0 | 11.0 | 0.00 | 0.00 | 0.69 | 96 | 1009.1 |
| 20260831184330 | 59 | 251 | 0.0 | 11.0 | 0.00 | 0.00 | 0.69 | 96 | 1009.3 |
| 20260831183830 | 59 | 251 | 0.0 | 11.0 | 0.00 | 0.00 | 0.69 | 96 | 1009.2 |
| 20260831182815 | 59 | 251 | 0.0 | 11.0 | 0.00 | 0.00 | 0.69 | 96 | 1009.2 |
| 20260831182315 | 59 | 251 | 0.0 | 11.0 | 0.00 | 0.00 | 0.69 | 96 | 1009.3 |
| 20260831181815 | 59 | 251 | 0.0 | 11.0 | 0.03 | 0.00 | 0.69 | 96 | 1009.2 |
| 20260831181314 | 59 | 251 | 0.0 | 11.0 | 0.05 | 0.00 | 0.69 | 96 | 1009.2 |
| 20260831180813 | 59 | 251 | 0.0 | 11.0 | 0.12 | 0.00 | 0.69 | 96 | 1009.2 |
| 20260831175757 | 59 | 251 | 0.0 | 11.0 | 0.25 | 0.00 | 0.69 | 96 | 1009.2 |
| 20260831175257 | 59 | 251 | 0.0 | 11.0 | 0.43 | 0.00 | 0.69 | 96 | 1008.8 |
| 20260831174757 | 59 | 251 | 0.0 | 11.0 | 0.49 | 0.00 | 0.69 | 96 | 1009.0 |
| 20260831174257 | 59 | 251 | 0.0 | 11.0 | 0.53 | 0.00 | 0.69 | 95 | 1009.2 |
| 20260831173757 | 59 | 251 | 0.0 | 11.0 | 0.58 | 0.00 | 0.69 | 95 | 1008.9 |
| 20260831172741 | 59 | 251 | 0.0 | 11.0 | 0.63 | 0.00 | 0.69 | 95 | 1008.8 |
| 20260831172241 | 59 | 251 | 0.0 | 11.0 | 0.62 | 0.00 | 0.68 | 95 | 1008.8 |
| 20260831171741 | 59 | 251 | 0.0 | 11.0 | 0.60 | 0.00 | 0.66 | 94 | 1009.1 |
| 20260831170210 | 60 | 220 | 0.0 | 11.0 | 0.48 | 0.00 | 0.53 | 93 | 1009.1 |
| 20260831165709 | 61 | 220 | 0.0 | 11.0 | 0.38 | 0.00 | 0.44 | 92 | 1009.1 |
| 20260831165208 | 61 | 206 | 0.0 | 11.0 | 0.21 | 0.00 | 0.27 | 91 | 1009.3 |
| 20260831164707 | 61 | 179 | 0.0 | 11.0 | 0.17 | 0.00 | 0.22 | 90 | 1008.9 |
| 20260831164207 | 62 | 183 | 1.0 | 11.0 | 0.12 | 0.00 | 0.17 | 90 | 1009.2 |
| 20260831163706 | 62 | 178 | 1.0 | 11.0 | 0.06 | 0.00 | 0.10 | 90 | 1008.7 |
| 20260831163205 | 63 | 170 | 0.0 | 11.0 | 0.03 | 0.00 | 0.05 | 90 | 1008.8 |
| 20260831162705 | 63 | 156 | 1.0 | 11.0 | 0.03 | 0.00 | 0.05 | 90 | 1008.7 |
| 20260831162204 | 63 | 158 | 0.0 | 11.0 | 0.03 | 0.00 | 0.05 | 91 | 1008.7 |
| 20260831161704 | 63 | 154 | 0.0 | 11.0 | 0.03 | 0.00 | 0.05 | 92 | 1008.8 |
| 20260831160647 | 63 | 153 | 0.0 | 11.0 | 0.03 | 0.00 | 0.05 | 92 | 1008.8 |
| 20260831160147 | 63 | 146 | 0.0 | 11.0 | 0.03 | 0.00 | 0.05 | 92 | 1009.0 |
| 20260831155646 | 63 | 152 | 0.0 | 11.0 | 0.03 | 0.00 | 0.05 | 92 | 1008.9 |
| 20260831155146 | 63 | 157 | 0.0 | 11.0 | 0.05 | 0.00 | 0.05 | 92 | 1009.0 |
| 20260831154646 | 63 | 161 | 0.0 | 11.0 | 0.05 | 0.00 | 0.05 | 91 | 1008.9 |
| 20260831153629 | 62 | 169 | 0.0 | 11.0 | 0.03 | 0.00 | 0.03 | 90 | 1009.2 |
| 20260831153129 | 62 | 172 | 0.0 | 11.0 | 0.02 | 0.00 | 0.02 | 90 | 1009.2 |
| 20260831152629 | 62 | 172 | 0.0 | 11.0 | 0.02 | 0.00 | 0.02 | 89 | 1009.2 |
| 20260831152128 | 63 | 173 | 0.0 | 11.0 | 0.02 | 0.00 | 0.02 | 89 | 1009.2 |
| 20260831151628 | 63 | 174 | 0.0 | 11.0 | 0.02 | 0.00 | 0.02 | 88 | 1009.2 |
| 20260831150612 | 63 | 174 | 0.0 | 11.0 | 0.01 | 0.00 | 0.01 | 86 | 1009.3 |
| 20260831150112 | 63 | 176 | 0.0 | 11.0 | 0.01 | 0.00 | 0.01 | 85 | 1009.3 |
| 20260831145611 | 64 | 155 | 2.0 | 11.0 | 0.01 | 0.00 | 0.01 | 83 | 1009.3 |
| 20260831145110 | 64 | 156 | 2.0 | 11.0 | 0.00 | 0.00 | 0.00 | 82 | 1009.2 |
| 20260831144610 | 64 | 138 | 3.0 | 11.0 | 0.00 | 0.00 | 0.00 | 82 | 1009.4 |
| 20260831144109 | 64 | 135 | 0.0 | 11.0 | 0.00 | 0.00 | 0.00 | 83 | 1009.4 |
| 20260831143054 | 64 | 349 | 0.0 | 11.0 | 0.00 | 0.00 | 0.00 | 84 | 1009.1 |
| 20260831142553 | 64 | 342 | 0.0 | 11.0 | 0.00 | 0.00 | 0.00 | 85 | 1009.3 |
| 20260831142053 | 64 | 265 | 0.0 | 11.0 | 0.00 | 0.00 | 0.00 | 86 | 1009.2 |
| 20260831141553 | 63 | 255 | 0.0 | 11.0 | 0.00 | 0.00 | 0.00 | 86 | 1009.2 |
| 20260831141053 | 63 | 352 | 0.0 | 11.0 | 0.00 | 0.00 | 0.00 | 86 | 1008.8 |
| 20260831140552 | 63 | 343 | 0.0 | 11.0 | 0.00 | 0.00 | 0.00 | 85 | 1009.3 |
| 20260831140052 | 63 | 252 | 0.0 | 11.0 | 0.00 | 0.00 | 0.00 | 87 | 1009.1 |
| 20260831135035 | 63 | 351 | 0.0 | 11.0 | 0.00 | 0.00 | 0.00 | 88 | 1009.5 |
| 20260831134535 | 62 | 349 | 0.0 | 11.0 | 0.00 | 0.00 | 0.00 | 87 | 1009.4 |
| 20260831134035 | 62 | 350 | 0.0 | 11.0 | 0.00 | 0.00 | 0.00 | 86 | 1009.4 |
| 20260831133533 | 62 | 347 | 0.0 | 11.0 | 0.00 | 0.00 | 0.00 | 86 | 1009.2 |
| 20260831133033 | 62 | 351 | 0.0 | 11.0 | 0.00 | 0.00 | 0.00 | 88 | 1009.4 |
| 20260831132533 | 62 | 351 | 0.0 | 11.0 | 0.00 | 0.00 | 0.00 | 88 | 1009.7 |
| 20260831132032 | 62 | 353 | 0.0 | 11.0 | 0.00 | 0.00 | 0.00 | 87 | 1009.6 |
| 20260831131531 | 62 | 10 | 0.0 | 11.0 | 0.00 | 0.00 | 0.00 | 85 | 1009.6 |
| 20260831131031 | 62 | 241 | 0.0 | 11.0 | 0.00 | 0.00 | 0.00 | 85 | 1009.7 |
| 20260831130531 | 62 | 241 | 0.0 | 11.0 | 0.00 | 0.00 | 0.00 | 84 | 1009.7 |
| 20260831130030 | 63 | 200 | 0.0 | 11.0 | 0.00 | 0.00 | 0.00 | 83 | 1009.9 |
| 20260831125529 | 63 | 128 | 0.0 | 11.0 | 0.00 | 0.00 | 0.00 | 83 | 1010.1 |
| 20260831125028 | 63 | 101 | 0.0 | 11.0 | 0.00 | 0.00 | 0.00 | 82 | 1009.9 |
| 20260831124527 | 64 | 181 | 0.0 | 11.0 | 0.00 | 0.00 | 0.00 | 79 | 1009.8 |
| 20260831124026 | 64 | 14 | 0.0 | 11.0 | 0.00 | 0.00 | 0.00 | 77 | 1009.9 |
| 20260831123009 | 64 | 180 | 2.0 | 11.0 | 0.00 | 0.00 | 0.00 | 75 | 1010.1 |
| 20260831122509 | 64 | 176 | 0.0 | 11.0 | 0.00 | 0.00 | 0.00 | 75 | 1010.1 |
| 20260831122008 | 65 | 181 | 0.0 | 11.0 | 0.00 | 0.00 | 0.00 | 74 | 1010.0 |
| 20260831121508 | 65 | 196 | 0.0 | 11.0 | 0.00 | 0.00 | 0.00 | 73 | 1009.7 |
| 20260831121008 | 65 | 182 | 1.0 | 11.0 | 0.00 | 0.00 | 0.00 | 73 | 1010.1 |
| 20260831115953 | 65 | 186 | 1.0 | 11.0 | 0.00 | 0.00 | 0.00 | 72 | 1009.9 |
| 20260831115453 | 66 | 173 | 0.0 | 11.0 | 0.00 | 0.00 | 0.00 | 71 | 1009.8 |
| 20260831114952 | 66 | 178 | 1.0 | 11.0 | 0.00 | 0.00 | 0.00 | 70 | 1009.8 |
| 20260831114452 | 66 | 185 | 1.0 | 11.0 | 0.00 | 0.00 | 0.00 | 69 | 1010.1 |
| 20260831111850 | 66 | 150 | 0.0 | 11.0 | 0.00 | 0.00 | 0.00 | 70 | 1009.8 |
| 20260831111350 | 66 | 151 | 0.0 | 11.0 | 0.00 | 0.00 | 0.00 | 71 | 1009.8 |
| 20260831110850 | 66 | 196 | 0.0 | 11.0 | 0.00 | 0.00 | 0.00 | 71 | 1009.5 |
| 20260831110349 | 66 | 142 | 0.0 | 11.0 | 0.00 | 0.00 | 0.00 | 71 | 1009.7 |
| 20260831105849 | 66 | 218 | 0.0 | 11.0 | 0.00 | 0.00 | 0.00 | 72 | 1009.4 |
| 20260831104834 | 66 | 337 | 0.0 | 11.0 | 0.00 | 0.00 | 0.00 | 72 | 1009.6 |
| 20260831103302 | 66 | 94 | 3.0 | 11.0 | 0.00 | 0.00 | 0.00 | 69 | 1009.9 |
| 20260831102801 | 67 | 97 | 0.0 | 11.0 | 0.00 | 0.00 | 0.00 | 70 | 1009.7 |
| 20260831102301 | 67 | 264 | 0.0 | 11.0 | 0.00 | 0.00 | 0.00 | 71 | 1009.7 |
| 20260831101801 | 66 | 229 | 1.0 | 11.0 | 0.00 | 0.00 | 0.00 | 73 | 1010.0 |
| 20260831101301 | 66 | 102 | 3.0 | 11.0 | 0.00 | 0.00 | 0.00 | 72 | 1010.0 |
| 20260831100800 | 65 | 147 | 0.0 | 11.0 | 0.00 | 0.00 | 0.00 | 74 | 1009.6 |
| 20260831100259 | 64 | 226 | 0.0 | 11.0 | 0.00 | 0.00 | 0.00 | 75 | 1009.9 |
| 20260831095758 | 64 | 113 | 0.0 | 11.0 | 0.00 | 0.00 | 0.00 | 75 | 1010.0 |
| 20260831095257 | 64 | 141 | 1.0 | 11.0 | 0.00 | 0.00 | 0.00 | 76 | 1009.8 |
| 20260831094757 | 65 | 155 | 0.0 | 11.0 | 0.00 | 0.00 | 0.00 | 74 | 1009.8 |
| 20260831094257 | 65 | 137 | 0.0 | 11.0 | 0.00 | 0.00 | 0.00 | 75 | 1010.2 |
| 20260831093757 | 64 | 144 | 1.0 | 11.0 | 0.00 | 0.00 | 0.00 | 75 | 1010.0 |
| 20260831093257 | 64 | 138 | 0.0 | 11.0 | 0.00 | 0.00 | 0.00 | 77 | 1009.9 |
| 20260831091726 | 63 | 195 | 0.0 | 11.0 | 0.00 | 0.00 | 0.00 | 77 | 1010.0 |
| 20260831091225 | 63 | 224 | 0.0 | 11.0 | 0.00 | 0.00 | 0.00 | 78 | 1009.8 |
| 20260831090210 | 63 | 204 | 0.0 | 11.0 | 0.00 | 0.00 | 0.00 | 77 | 1009.5 |
| 20260831085153 | 63 | 206 | 1.0 | 11.0 | 0.00 | 0.00 | 0.00 | 76 | 1010.0 |
| 20260831084653 | 64 | 209 | 0.0 | 11.0 | 0.00 | 0.00 | 0.00 | 76 | 1009.7 |
| 20260831084153 | 64 | 193 | 0.0 | 11.0 | 0.00 | 0.00 | 0.00 | 75 | 1010.2 |
| 20260831083652 | 64 | 198 | 0.0 | 11.0 | 0.00 | 0.00 | 0.00 | 77 | 1009.6 |